User: anonymous   Login
Location: Albany
(35.0000°S, 118.0000°E)
Time: 01:08:51
(UTC-04:00)
Language:

Cosmos 1758 Rocket - Orbit

View from above orbital plane
View from above orbital plane
View from above satellite
View from above satellite

Ground track
Ground track

The orbit data is extracted from the following two-line orbital elements,

1 16792U 86046B   14298.73989694  .00000918  00000-0  11048-3 0  6125
2 16792 082.4858 030.6230 0023683 228.5480 292.4319 14.82668317531798
Epoch (UTC): 25 October 2014 17:45:27
Eccentricity: 0.0023683
inclination: 82.4858°
perigee height: 604 km
apogee height: 637 km
right ascension of ascending node: 30.6230°
argument of perigee: 228.5480°
revolutions per day: 14.82668317
mean anomaly at epoch: 292.4319°
orbit number at epoch: 53179

The dashed part of the orbit path shows where the satellite is in the earth's shadow,  

DLR